Location: Newark
(44.5869°N, 123.1150°W)
Time: 02:51:24
(UTC+00:00)

N. Korean satellite - Pass Details

Date: 29 September 2020
Orbit: 453 x 505 km, 97.2° (Epoch: 21 October)

Event Time Altitude Azimuth Distance (km) Brightness Sun altitude
Rises 12:59:36 0° 26° (NNE) 2,577 10.8 -13.1°
Reaches altitude 10° 13:02:06 10° 43° (NE) 1,679 10.1 -12.7°
Maximum altitude 13:04:53 21° 94° (E) 1,140 9.5 -12.2°
Drops below altitude 10° 13:07:36 10° 144° (SE) 1,644 9.6 -11.7°
Sets 13:10:00 0° 161° (SSE) 2,505 10.3 -11.3°
